Simultaneous Nadir Overpasses (SNOs) Predictions

Prediction of SNOs between NOAA-19 and TERRA Satellite Orbit:

Table of predicted SNOs for the next 14.0 days since TLE Epoch: 5/11/2013
Index Date (NOAA-19) Time (NOAA-19) Lat,Lon (NOAA-19) SZA (NOAA-19 ) Date (TERRA) Time (TERRA) Lat,Lon (TERRA) SZA (TERRA ) Distance(km) Time Diff (sec)
1 05/12/2013 05:30:37 69.40, 97.28 51.12 05/12/2013 05:31:03 69.43, 97.24 51.14 2.87 26
2 05/12/2013 06:21:31 -69.33, -95.34 128.97 05/12/2013 06:20:33 -69.31, -95.28 128.99 2.98 58
3 05/14/2013 10:14:59 69.43, 26.16 50.61 05/14/2013 10:15:17 69.43, 26.18 50.60 0.72 18
4 05/14/2013 11:05:52 -69.30,-166.38 129.53 05/14/2013 11:04:47 -69.31,-166.34 129.52 2.17 65
5 05/16/2013 14:59:20 69.42, -44.89 50.08 05/16/2013 14:59:31 69.41, -44.90 50.07 0.88 11
6 05/16/2013 15:50:13 -69.29, 122.57 130.06 05/16/2013 15:49:01 -69.30, 122.59 130.05 1.79 72
7 05/18/2013 19:43:41 69.41,-115.96 49.59 05/18/2013 19:43:44 69.43,-115.93 49.61 2.39 3
8 05/18/2013 20:34:30 -69.07, 51.80 130.76 05/18/2013 20:33:17 -69.16, 51.35 130.68 20.83 73
9 05/20/2013 23:37:10 -70.30, 4.39 129.98 05/20/2013 23:38:18 -70.22, 6.46 130.05 78.21 68
10 05/21/2013 00:28:02 69.42, 172.95 49.14 05/21/2013 00:27:57 69.44, 173.02 49.15 3.25 5
11 05/21/2013 01:18:46 -68.80, -18.90 131.48 05/21/2013 01:17:35 -68.89, -20.05 131.41 47.15 71
12 05/23/2013 04:21:26 -70.05, -66.29 130.66 05/23/2013 04:22:36 -69.93, -65.00 130.77 50.73 70
13 05/23/2013 05:12:22 69.39, 101.93 48.68 05/23/2013 05:12:11 69.37, 101.88 48.65 2.77 11




NCC Satellite Simultaneous Nadir Overpasses (SNOs) Prediction Service
